Location: Harwich
(41.7160°N, 69.9939°W)
Time: 11:55:58
(UTC+02:00)

DUCHIFAT 1 - Visible Passes

Search period start: 16 September 2024 00:00
Search period end: 26 September 2024 00:00
Orbit: 522 x 542 km, 98.1° (Epoch: 15 September)

Date Brightness Start Highest point End Pass type
(mag) Time Alt. Az. Time Alt. Az. Time Alt. Az.
16 Sep ? 10:45:19 10° ENE 10:46:13 11° E 10:47:07 10° ESE visible
19 Sep ? 11:47:25 10° NNE 11:51:13 63° ESE 11:54:57 10° S visible
20 Sep ? 11:37:31 10° NNE 11:41:12 46° E 11:44:50 10° S visible
21 Sep ? 11:27:37 10° NNE 11:31:07 34° E 11:34:36 10° SSE visible
22 Sep ? 11:17:44 10° NE 11:20:58 26° E 11:24:10 10° SSE visible
23 Sep ? 11:07:55 10° NE 11:10:45 20° E 11:13:33 10° SE visible
24 Sep ? 10:58:13 10° ENE 11:00:27 15° E 11:02:40 10° SE visible
25 Sep ? 10:48:57 10° ENE 10:50:05 11° E 10:51:14 10° ESE visible
